This demonstration page uses our WeatherBlox Daily Observations layout. Learn more.

Left ArrowRight Arrow

39.01783, -85.05884

Hourly Observations for July 27, 2021

Temp ( °F °C ) Dew Point ( °F °C ) Humidity (%) Winds ( mph kmh ) Pressure ( in mb ) Visibility ( mi km ) Precip ( " mm )
12:52 am 00:52 Clear 76 24.4 61 16.1 60 60 E 5 7 30.01 1016 10 16 0.00 0.00
1:52 am 01:52 Clear 75 23.9 61 16.1 62 62 ENE 5 7 30.01 1016 10 16 0.00 0.00
2:52 am 02:52 Clear 71 21.7 61 16.1 71 71 Calm 30.01 1016 10 16 0.00 0.00
3:52 am 03:52 Clear 71 21.7 61 16.1 71 71 Calm 30.01 1016 10 16 0.00 0.00
4:52 am 04:52 Clear 71 21.7 61 16.1 71 71 Calm 30.01 1016 10 16 0.00 0.00
5:52 am 05:52 Clear 72 22.2 60 15.6 66 66 Calm 30.01 1016 10 16 0.00 0.00
6:52 am 06:52 Sunny 67 19.4 61 16.1 81 81 Calm 30.02 1017 7 11 0.00 0.00
7:52 am 07:52 Sunny 70 21.1 64 17.8 82 82 Calm 30.03 1017 7 11 0.00 0.00
8:52 am 08:52 Sunny 77 25 62 16.7 60 60 E 3 6 30.04 1017 9 14 0.00 0.00
9:52 am 09:52 Sunny 80 26.7 63 17.2 56 56 Calm 30.06 1018 9 14 0.00 0.00
10:52 am 10:52 Sunny 84 28.9 60 15.6 44 44 VRB 3 6 30.05 1018 10 16 0.00 0.00
11:52 am 11:52 Sunny 85 29.4 60 15.6 43 43 SE 6 9 30.04 1017 10 16 0.00 0.00
12:52 pm 12:52 Mostly Sunny 87 30.6 57 13.9 36 36 VRB 6 9 30.06 1018 10 16 0.00 0.00
1:52 pm 13:52 Sunny 88 31.1 60 15.6 39 39 N 9 15 30.04 1017 10 16 0.00 0.00
2:52 pm 14:52 Sunny 89 31.7 59 15 36 36 VRB 3 6 30.03 1017 10 16 0.00 0.00
3:52 pm 15:52 Sunny 89 31.7 59 15 36 36 N 8 13 30.03 1017 10 16 0.00 0.00
4:52 pm 16:52 Sunny 88 31.1 61 16.1 40 40 N 10 17 30.01 1016 10 16 0.00 0.00
5:52 pm 17:52 Sunny 88 31.1 60 15.6 39 39 N 8 13 30.00 1016 10 16 0.00 0.00
6:52 pm 18:52 Sunny 87 30.6 62 16.7 43 43 N 8 13 30.00 1016 10 16 0.00 0.00
7:52 pm 19:52 Mostly Sunny 84 28.9 63 17.2 49 49 N 6 9 30.00 1016 10 16 0.00 0.00
8:52 pm 20:52 Sunny 82 27.8 63 17.2 53 53 NNW 6 9 30.00 1016 10 16 0.00 0.00
9:52 pm 21:52 Clear 78 25.6 64 17.8 62 62 Calm 30.00 1016 10 16 0.00 0.00
10:52 pm 22:52 Clear 73 22.8 64 17.8 74 74 Calm 30.02 1017 10 16 0.00 0.00
11:52 pm 23:52 Clear 76 24.4 65 18.3 69 69 Calm 30.03 1017 10 16 0.00 0.00

Powered by AerisWeather